Location: Red Deer
(52.2681°N, 113.8112°W)
Time: 00:03:59
(UTC-06:00)

QB50P2 - Pass Details

Date: 24 May 2022
Orbit: 589 x 607 km, 97.9° (Epoch: 27 June)

Event Time Altitude Azimuth Distance (km) Brightness Sun altitude
Rises 03:25:33 0° 12° (NNE) 2,840 ? -12.9°
Reaches altitude 10° 03:27:44 10° 9° (N) 1,932 ? -12.7°
Maximum altitude 03:31:53 66° 288° (WNW) 650 ? -12.4°
Enters shadow 03:34:49 19° 210° (SSW) 1,443 ? -12.2°
